When you browse on this site, cookies collect data to enhance your experience and personalize the content and advertising you see.
Visit our Privacy Policy to learn more. By continuing to use the site, you agree to this use of cookies and data.
  • In Schweiz
  • Länderverzeichnis
  • Für 7 Tage
  • Wassertemperatur
  • Wetterkarte
  • Widgets
  • user-avatar
    Anmelden

    Stündliche Wetter Kaarst

    Heute, 6 Juni, Samstag

    Zeit Temperatur Niederschläge Wind Luftdruck Luftfeuchtigkeit
    00:00 +9°C° 0 mm 3 m/S 745 mmHg 82%
    01:00 +7°C° 0 mm 4 m/S 745 mmHg 84%
    02:00 +7°C° 0 mm 4 m/S 745 mmHg 85%
    03:00 +7°C° 0 mm 4 m/S 745 mmHg 86%
    04:00 +7°C° 0 mm 4 m/S 745 mmHg 83%
    05:00 +8°C° 0 mm 4 m/S 745 mmHg 80%
    06:00 +9°C° 0 mm 5 m/S 745 mmHg 77%
    07:00 +10°C° 0.4 mm 5 m/S 746 mmHg 75%
    08:00 +11°C° 0.4 mm 6 m/S 746 mmHg 73%
    09:00 +11°C° 0.4 mm 6 m/S 746 mmHg 71%
    10:00 +14°C° 0.1 mm 6 m/S 746 mmHg 61%
    11:00 +15°C° 0.1 mm 7 m/S 746 mmHg 51%
    12:00 +17°C° 0.1 mm 7 m/S 746 mmHg 41%
    13:00 +17°C° 0 mm 7 m/S 746 mmHg 42%
    14:00 +17°C° 0 mm 7 m/S 746 mmHg 44%
    15:00 +16°C° 0 mm 6 m/S 746 mmHg 46%
    16:00 +16°C° 0.1 mm 6 m/S 747 mmHg 50%
    17:00 +15°C° 0.1 mm 5 m/S 747 mmHg 54%
    18:00 +14°C° 0.1 mm 5 m/S 747 mmHg 58%
    19:00 +13°C° 0 mm 5 m/S 747 mmHg 60%
    20:00 +12°C° 0 mm 4 m/S 748 mmHg 62%
    21:00 +10°C° 0 mm 4 m/S 748 mmHg 63%
    22:00 +10°C° 0 mm 4 m/S 748 mmHg 65%
    23:00 +10°C° 0 mm 4 m/S 748 mmHg 67%

    Morgen, 7 Juni, Sonntag

    Zeit Temperatur Niederschläge Wind Luftdruck Luftfeuchtigkeit
    00:00 +8°C° 0 mm 5 m/S 748 mmHg 68%
    01:00 +8°C° 0 mm 5 m/S 748 mmHg 71%
    02:00 +8°C° 0 mm 5 m/S 748 mmHg 74%
    03:00 +8°C° 0 mm 5 m/S 748 mmHg 76%
    04:00 +9°C° 0 mm 5 m/S 748 mmHg 76%
    05:00 +9°C° 0 mm 6 m/S 749 mmHg 76%
    06:00 +10°C° 0 mm 6 m/S 749 mmHg 76%
    07:00 +11°C° 0.1 mm 6 m/S 749 mmHg 71%
    08:00 +13°C° 0.1 mm 6 m/S 750 mmHg 66%
    09:00 +15°C° 0.1 mm 6 m/S 750 mmHg 61%
    10:00 +16°C° 0.1 mm 6 m/S 750 mmHg 57%
    11:00 +17°C° 0.1 mm 6 m/S 751 mmHg 53%
    12:00 +19°C° 0.1 mm 6 m/S 751 mmHg 50%
    13:00 +19°C° 0.1 mm 5 m/S 751 mmHg 51%
    14:00 +19°C° 0.1 mm 5 m/S 751 mmHg 52%
    15:00 +19°C° 0.1 mm 5 m/S 752 mmHg 53%
    16:00 +18°C° 0.2 mm 4 m/S 752 mmHg 58%
    17:00 +17°C° 0.2 mm 3 m/S 752 mmHg 62%
    18:00 +17°C° 0.2 mm 2 m/S 753 mmHg 67%
    19:00 +15°C° 0 mm 2 m/S 753 mmHg 69%
    20:00 +14°C° 0 mm 2 m/S 754 mmHg 72%
    21:00 +13°C° 0 mm 1 m/S 754 mmHg 75%
    22:00 +12°C° 0 mm 1 m/S 754 mmHg 77%
    23:00 +11°C° 0 mm 1 m/S 754 mmHg 79%

    übermorgen, 8 Juni, Montag

    Zeit Temperatur Niederschläge Wind Luftdruck Luftfeuchtigkeit
    00:00 +11°C° 0 mm 1 m/S 754 mmHg 81%
    01:00 +11°C° 0 mm 1 m/S 754 mmHg 82%
    02:00 +10°C° 0 mm 1 m/S 754 mmHg 83%
    03:00 +10°C° 0 mm 1 m/S 755 mmHg 84%
    04:00 +11°C° 0 mm 1 m/S 755 mmHg 82%
    05:00 +12°C° 0 mm 2 m/S 755 mmHg 79%
    06:00 +13°C° 0 mm 2 m/S 755 mmHg 77%
    07:00 +14°C° 0 mm 2 m/S 755 mmHg 75%
    08:00 +15°C° 0 mm 2 m/S 756 mmHg 72%
    09:00 +16°C° 0 mm 2 m/S 756 mmHg 70%
    10:00 +17°C° 0.1 mm 2 m/S 756 mmHg 65%
    11:00 +18°C° 0.1 mm 3 m/S 756 mmHg 61%
    12:00 +19°C° 0.1 mm 3 m/S 756 mmHg 56%
    13:00 +19°C° 0.1 mm 3 m/S 756 mmHg 57%
    14:00 +19°C° 0.1 mm 4 m/S 756 mmHg 58%
    15:00 +19°C° 0.1 mm 5 m/S 756 mmHg 60%
    16:00 +17°C° 0 mm 5 m/S 756 mmHg 63%
    17:00 +17°C° 0 mm 4 m/S 756 mmHg 66%
    18:00 +15°C° 0 mm 4 m/S 757 mmHg 70%
    19:00 +14°C° 0 mm 4 m/S 757 mmHg 73%
    20:00 +13°C° 0 mm 4 m/S 758 mmHg 77%
    21:00 +11°C° 0 mm 3 m/S 758 mmHg 80%
    22:00 +11°C° 0 mm 3 m/S 758 mmHg 80%
    23:00 +10°C° 0 mm 3 m/S 759 mmHg 80%

    9 Juni, Dienstag

    Zeit Temperatur Niederschläge Wind Luftdruck Luftfeuchtigkeit
    00:00 +10°C° 0 mm 3 m/S 759 mmHg 79%
    01:00 +10°C° 0 mm 3 m/S 759 mmHg 78%
    02:00 +10°C° 0 mm 3 m/S 759 mmHg 76%
    03:00 +9°C° 0 mm 3 m/S 759 mmHg 75%
    04:00 +10°C° 0 mm 3 m/S 759 mmHg 72%
    05:00 +10°C° 0 mm 2 m/S 759 mmHg 70%
    06:00 +10°C° 0 mm 2 m/S 759 mmHg 67%
    07:00 +13°C° 0 mm 2 m/S 760 mmHg 62%
    08:00 +14°C° 0 mm 2 m/S 760 mmHg 57%
    09:00 +15°C° 0 mm 2 m/S 760 mmHg 52%
    10:00 +16°C° 0 mm 3 m/S 760 mmHg 49%
    11:00 +17°C° 0 mm 3 m/S 760 mmHg 46%
    12:00 +18°C° 0 mm 3 m/S 760 mmHg 44%
    13:00 +18°C° 0 mm 3 m/S 759 mmHg 44%
    14:00 +18°C° 0 mm 4 m/S 759 mmHg 44%
    15:00 +19°C° 0 mm 4 m/S 759 mmHg 44%
    16:00 +18°C° 0 mm 4 m/S 759 mmHg 48%
    17:00 +17°C° 0 mm 4 m/S 759 mmHg 52%
    18:00 +15°C° 0 mm 4 m/S 759 mmHg 56%
    19:00 +14°C° 0 mm 4 m/S 760 mmHg 61%
    20:00 +12°C° 0 mm 3 m/S 760 mmHg 65%
    21:00 +11°C° 0 mm 3 m/S 761 mmHg 70%
    22:00 +10°C° 0 mm 3 m/S 761 mmHg 73%
    23:00 +10°C° 0 mm 3 m/S 761 mmHg 75%

    10 Juni, Mittwoch

    Zeit Temperatur Niederschläge Wind Luftdruck Luftfeuchtigkeit
    00:00 +9°C° 0 mm 2 m/S 760 mmHg 78%
    01:00 +9°C° 0 mm 2 m/S 760 mmHg 80%
    02:00 +8°C° 0 mm 2 m/S 760 mmHg 83%
    03:00 +8°C° 0 mm 2 m/S 760 mmHg 85%
    04:00 +9°C° 0 mm 2 m/S 760 mmHg 81%
    05:00 +10°C° 0 mm 2 m/S 760 mmHg 78%
    06:00 +12°C° 0 mm 2 m/S 760 mmHg 74%
    07:00 +14°C° 0 mm 2 m/S 760 mmHg 69%
    08:00 +16°C° 0 mm 2 m/S 760 mmHg 64%
    09:00 +18°C° 0 mm 2 m/S 760 mmHg 58%
    10:00 +18°C° 0 mm 2 m/S 759 mmHg 57%
    11:00 +19°C° 0 mm 2 m/S 759 mmHg 55%
    12:00 +20°C° 0 mm 2 m/S 758 mmHg 53%
    13:00 +20°C° 0 mm 3 m/S 758 mmHg 54%
    14:00 +20°C° 0 mm 3 m/S 758 mmHg 54%
    15:00 +21°C° 0 mm 3 m/S 757 mmHg 55%
    16:00 +20°C° 0 mm 3 m/S 757 mmHg 59%
    17:00 +19°C° 0 mm 3 m/S 757 mmHg 62%
    18:00 +19°C° 0 mm 3 m/S 757 mmHg 66%
    19:00 +18°C° 0.1 mm 3 m/S 757 mmHg 69%
    20:00 +17°C° 0.1 mm 3 m/S 758 mmHg 71%
    21:00 +16°C° 0.1 mm 3 m/S 758 mmHg 74%
    22:00 +16°C° 0.5 mm 3 m/S 757 mmHg 79%
    23:00 +15°C° 0.5 mm 2 m/S 757 mmHg 83%

    11 Juni, Donnerstag

    Zeit Temperatur Niederschläge Wind Luftdruck Luftfeuchtigkeit
    00:00 +15°C° 0.5 mm 2 m/S 757 mmHg 88%
    01:00 +15°C° 0.4 mm 2 m/S 757 mmHg 89%
    02:00 +14°C° 0.4 mm 2 m/S 756 mmHg 90%
    03:00 +14°C° 0.4 mm 2 m/S 756 mmHg 91%
    04:00 +14°C° 0.2 mm 2 m/S 756 mmHg 90%
    05:00 +13°C° 0.2 mm 3 m/S 756 mmHg 89%
    06:00 +13°C° 0.2 mm 3 m/S 756 mmHg 88%
    07:00 +14°C° 0.4 mm 2 m/S 756 mmHg 88%
    08:00 +15°C° 0.4 mm 2 m/S 755 mmHg 88%
    09:00 +15°C° 0.4 mm 2 m/S 755 mmHg 88%
    10:00 +16°C° 0.2 mm 2 m/S 755 mmHg 83%
    11:00 +17°C° 0.2 mm 2 m/S 755 mmHg 78%
    12:00 +18°C° 0.2 mm 2 m/S 754 mmHg 73%
    13:00 +18°C° 0.3 mm 2 m/S 754 mmHg 76%
    14:00 +18°C° 0.3 mm 3 m/S 754 mmHg 78%
    15:00 +17°C° 0.3 mm 3 m/S 754 mmHg 81%
    16:00 +17°C° 0.5 mm 3 m/S 754 mmHg 84%
    17:00 +16°C° 0.5 mm 2 m/S 754 mmHg 87%
    18:00 +16°C° 0.5 mm 2 m/S 754 mmHg 90%
    19:00 +15°C° 0.6 mm 2 m/S 754 mmHg 91%
    20:00 +15°C° 0.6 mm 1 m/S 754 mmHg 93%
    21:00 +15°C° 0.6 mm 1 m/S 754 mmHg 94%
    22:00 +15°C° 1.4 mm 1 m/S 753 mmHg 94%
    23:00 +15°C° 1.4 mm 1 m/S 753 mmHg 95%
    Mehr zeigen